Year,Month,Day,Hour,Minute,Value (Times are PST for temperature in C)
2008,06,15,00,00,9.20
2008,06,15,00,01,9.20
2008,06,15,00,02,9.20
2008,06,15,00,03,9.20
2008,06,15,00,04,9.20
2008,06,15,00,05,9.20
2008,06,15,00,06,9.20
2008,06,15,00,07,9.20
2008,06,15,00,08,9.20
2008,06,15,00,09,9.20
2008,06,15,00,10,9.10
2008,06,15,00,11,9.10
2008,06,15,00,12,9.10
2008,06,15,00,13,9.10
2008,06,15,00,14,9.10
2008,06,15,00,15,9.20
2008,06,15,00,16,9.20
2008,06,15,00,17,9.20
2008,06,15,00,18,9.20
2008,06,15,00,19,9.20
2008,06,15,00,20,9.20
2008,06,15,00,21,9.20
2008,06,15,00,22,9.20
2008,06,15,00,23,9.20
2008,06,15,00,24,9.20
2008,06,15,00,25,9.20
2008,06,15,00,26,9.20
2008,06,15,00,27,9.20
2008,06,15,00,28,9.20
2008,06,15,00,29,9.20
2008,06,15,00,30,9.20
2008,06,15,00,31,9.20
2008,06,15,00,32,9.20
2008,06,15,00,33,9.20
2008,06,15,00,34,9.20
2008,06,15,00,35,9.30
2008,06,15,00,36,9.30
2008,06,15,00,37,9.30
2008,06,15,00,38,9.30
2008,06,15,00,39,9.30
2008,06,15,00,40,9.30
2008,06,15,00,41,9.30
2008,06,15,00,42,9.30
2008,06,15,00,43,9.30
2008,06,15,00,44,9.40
2008,06,15,00,45,9.30
2008,06,15,00,46,9.30
2008,06,15,00,47,9.30
2008,06,15,00,48,9.30
2008,06,15,00,49,9.30
2008,06,15,00,50,9.30
2008,06,15,00,51,9.30
2008,06,15,00,52,9.30
2008,06,15,00,53,9.30
2008,06,15,00,54,9.30
2008,06,15,00,55,9.30
2008,06,15,00,56,9.40
2008,06,15,00,57,9.40
2008,06,15,00,58,9.40
2008,06,15,00,59,9.40
2008,06,15,01,00,9.40
2008,06,15,01,01,9.40
2008,06,15,01,02,9.40
2008,06,15,01,03,9.40
2008,06,15,01,04,9.40
2008,06,15,01,05,9.40
2008,06,15,01,06,9.40
2008,06,15,01,07,9.40
2008,06,15,01,08,9.40
2008,06,15,01,09,9.40
2008,06,15,01,10,9.40
2008,06,15,01,11,9.30
2008,06,15,01,12,9.30
2008,06,15,01,13,9.30
2008,06,15,01,14,9.30
2008,06,15,01,15,9.30
2008,06,15,01,16,9.30
2008,06,15,01,17,9.30
2008,06,15,01,18,9.30
2008,06,15,01,19,9.30
2008,06,15,01,20,9.30
2008,06,15,01,21,9.30
2008,06,15,01,22,9.30
2008,06,15,01,23,9.30
2008,06,15,01,24,9.30
2008,06,15,01,25,9.30
2008,06,15,01,26,9.30
2008,06,15,01,27,9.30
2008,06,15,01,28,9.20
2008,06,15,01,29,9.20
2008,06,15,01,30,9.20
2008,06,15,01,31,9.20
2008,06,15,01,32,9.20
2008,06,15,01,33,9.20
2008,06,15,01,34,9.20
2008,06,15,01,35,9.20
2008,06,15,01,36,9.20
2008,06,15,01,37,9.20
2008,06,15,01,38,9.20
2008,06,15,01,39,9.20
2008,06,15,01,40,9.20
2008,06,15,01,41,9.20
2008,06,15,01,42,9.20
2008,06,15,01,43,9.20
2008,06,15,01,44,9.20
2008,06,15,01,45,9.20
2008,06,15,01,46,9.20
2008,06,15,01,47,9.20
2008,06,15,01,48,9.20
2008,06,15,01,49,9.20
2008,06,15,01,50,9.20
2008,06,15,01,51,9.20
2008,06,15,01,52,9.20
2008,06,15,01,53,9.20
2008,06,15,01,54,9.20
2008,06,15,01,55,9.20
2008,06,15,01,56,9.20
2008,06,15,01,57,9.20
2008,06,15,01,58,9.20
2008,06,15,01,59,9.20
2008,06,15,02,00,9.20
2008,06,15,02,01,9.20
2008,06,15,02,02,9.20
2008,06,15,02,03,9.20
2008,06,15,02,04,9.20
2008,06,15,02,05,9.20
2008,06,15,02,06,9.20
2008,06,15,02,07,9.20
2008,06,15,02,08,9.20
2008,06,15,02,09,9.20
2008,06,15,02,10,9.20
2008,06,15,02,11,9.20
2008,06,15,02,12,9.20
2008,06,15,02,13,9.20
2008,06,15,02,14,9.20
2008,06,15,02,15,9.20
2008,06,15,02,16,9.20
2008,06,15,02,17,9.20
2008,06,15,02,18,9.20
2008,06,15,02,19,9.20
2008,06,15,02,20,9.20
2008,06,15,02,21,9.20
2008,06,15,02,22,9.20
2008,06,15,02,23,9.20
2008,06,15,02,24,9.20
2008,06,15,02,25,9.20
2008,06,15,02,26,9.20
2008,06,15,02,27,9.20
2008,06,15,02,28,9.20
2008,06,15,02,29,9.20
2008,06,15,02,30,9.20
2008,06,15,02,31,9.20
2008,06,15,02,32,9.20
2008,06,15,02,33,9.20
2008,06,15,02,34,9.20
2008,06,15,02,35,9.20
2008,06,15,02,36,9.20
2008,06,15,02,37,9.20
2008,06,15,02,38,9.30
2008,06,15,02,39,9.30
2008,06,15,02,40,9.30
2008,06,15,02,41,9.30
2008,06,15,02,42,9.30
2008,06,15,02,43,9.30
2008,06,15,02,44,9.20
2008,06,15,02,45,9.20
2008,06,15,02,46,9.20
2008,06,15,02,47,9.30
2008,06,15,02,48,9.30
2008,06,15,02,49,9.30
2008,06,15,02,50,9.30
2008,06,15,02,51,9.30
2008,06,15,02,52,9.30
2008,06,15,02,53,9.30
2008,06,15,02,54,9.30
2008,06,15,02,55,9.30
2008,06,15,02,56,9.30
2008,06,15,02,57,9.30
2008,06,15,02,58,9.30
2008,06,15,02,59,9.30
2008,06,15,03,00,9.30
2008,06,15,03,01,9.30
2008,06,15,03,02,9.30
2008,06,15,03,03,9.30
2008,06,15,03,04,9.30
2008,06,15,03,05,9.30
2008,06,15,03,06,9.30
2008,06,15,03,07,9.30
2008,06,15,03,08,9.30
2008,06,15,03,09,9.30
2008,06,15,03,10,9.30
2008,06,15,03,11,9.30
2008,06,15,03,12,9.30
2008,06,15,03,13,9.30
2008,06,15,03,14,9.30
2008,06,15,03,15,9.30
2008,06,15,03,16,9.30
2008,06,15,03,17,9.30
2008,06,15,03,18,9.30
2008,06,15,03,19,9.30
2008,06,15,03,20,9.30
2008,06,15,03,21,9.30
2008,06,15,03,22,9.30
2008,06,15,03,23,9.30
2008,06,15,03,24,9.30
2008,06,15,03,25,9.30
2008,06,15,03,26,9.30
2008,06,15,03,27,9.30
2008,06,15,03,28,9.30
2008,06,15,03,29,9.30
2008,06,15,03,30,9.30
2008,06,15,03,31,9.20
2008,06,15,03,32,9.20
2008,06,15,03,33,9.20
2008,06,15,03,34,9.20
2008,06,15,03,35,9.20
2008,06,15,03,36,9.20
2008,06,15,03,37,9.20
2008,06,15,03,38,9.20
2008,06,15,03,39,9.20
2008,06,15,03,40,9.20
2008,06,15,03,41,9.20
2008,06,15,03,42,9.20
2008,06,15,03,43,9.20
2008,06,15,03,44,9.30
2008,06,15,03,45,9.30
2008,06,15,03,46,9.30
2008,06,15,03,47,9.30
2008,06,15,03,48,9.30
2008,06,15,03,49,9.30
2008,06,15,03,50,9.30
2008,06,15,03,51,9.30
2008,06,15,03,52,9.30
2008,06,15,03,53,9.30
2008,06,15,03,54,9.30
2008,06,15,03,55,9.30
2008,06,15,03,56,9.30
2008,06,15,03,57,9.30
2008,06,15,03,58,9.30
2008,06,15,03,59,9.30
2008,06,15,04,00,9.30
2008,06,15,04,01,9.30
2008,06,15,04,02,9.30
2008,06,15,04,03,9.30
2008,06,15,04,04,9.30
2008,06,15,04,05,9.30
2008,06,15,04,06,9.30
2008,06,15,04,07,9.20
2008,06,15,04,08,9.20
2008,06,15,04,09,9.20
2008,06,15,04,10,9.20
2008,06,15,04,11,9.20
2008,06,15,04,12,9.20
2008,06,15,04,13,9.20
2008,06,15,04,14,9.20
2008,06,15,04,15,9.20
2008,06,15,04,16,9.20
2008,06,15,04,17,9.20
2008,06,15,04,18,9.20
2008,06,15,04,19,9.20
2008,06,15,04,20,9.20
2008,06,15,04,21,9.20
2008,06,15,04,22,9.20
2008,06,15,04,23,9.20
2008,06,15,04,24,9.20
2008,06,15,04,25,9.20
2008,06,15,04,26,9.20
2008,06,15,04,27,9.20
2008,06,15,04,28,9.20
2008,06,15,04,29,9.20
2008,06,15,04,30,9.20
2008,06,15,04,31,9.20
2008,06,15,04,32,9.20
2008,06,15,04,33,9.20
2008,06,15,04,34,9.20
2008,06,15,04,35,9.20
2008,06,15,04,36,9.20
2008,06,15,04,37,9.20
2008,06,15,04,38,9.20
2008,06,15,04,39,9.20
2008,06,15,04,40,9.20
2008,06,15,04,41,9.20
2008,06,15,04,42,9.20
2008,06,15,04,43,9.20
2008,06,15,04,44,9.20
2008,06,15,04,45,9.20
2008,06,15,04,46,9.20
2008,06,15,04,47,9.20
2008,06,15,04,48,9.20
2008,06,15,04,49,9.20
2008,06,15,04,50,9.20
2008,06,15,04,51,9.20
2008,06,15,04,52,9.20
2008,06,15,04,53,9.20
2008,06,15,04,54,9.20
2008,06,15,04,55,9.20
2008,06,15,04,56,9.20
2008,06,15,04,57,9.20
2008,06,15,04,58,9.20
2008,06,15,04,59,9.20
2008,06,15,05,00,9.20
2008,06,15,05,01,9.20
2008,06,15,05,02,9.10
2008,06,15,05,03,9.10
2008,06,15,05,04,9.10
2008,06,15,05,05,9.10
2008,06,15,05,06,9.10
2008,06,15,05,07,9.10
2008,06,15,05,08,9.10
2008,06,15,05,09,9.10
2008,06,15,05,10,9.10
2008,06,15,05,11,9.00
2008,06,15,05,12,9.00
2008,06,15,05,13,9.00
2008,06,15,05,14,9.00
2008,06,15,05,15,9.00
2008,06,15,05,16,9.00
2008,06,15,05,17,9.00
2008,06,15,05,18,9.00
2008,06,15,05,19,9.00
2008,06,15,05,20,9.00
2008,06,15,05,21,9.00
2008,06,15,05,22,8.90
2008,06,15,05,23,8.90
2008,06,15,05,24,8.90
2008,06,15,05,25,8.90
2008,06,15,05,26,8.90
2008,06,15,05,27,8.90
2008,06,15,05,28,8.90
2008,06,15,05,29,8.90
2008,06,15,05,30,8.90
2008,06,15,05,31,8.90
2008,06,15,05,32,8.90
2008,06,15,05,33,8.90
2008,06,15,05,34,8.90
2008,06,15,05,35,8.90
2008,06,15,05,36,8.90
2008,06,15,05,37,8.90
2008,06,15,05,38,9.00
2008,06,15,05,39,9.00
2008,06,15,05,40,9.00
2008,06,15,05,41,9.10
2008,06,15,05,42,9.10
2008,06,15,05,43,9.10
2008,06,15,05,44,9.10
2008,06,15,05,45,9.10
2008,06,15,05,46,9.10
2008,06,15,05,47,9.10
2008,06,15,05,48,9.20
2008,06,15,05,49,9.20
2008,06,15,05,50,9.20
2008,06,15,05,51,9.20
2008,06,15,05,52,9.20
2008,06,15,05,53,9.20
2008,06,15,05,54,9.30
2008,06,15,05,55,9.30
2008,06,15,05,56,9.30
2008,06,15,05,57,9.30
2008,06,15,05,58,9.30
2008,06,15,05,59,9.30
2008,06,15,06,00,9.40
2008,06,15,06,01,9.40
2008,06,15,06,02,9.40
2008,06,15,06,03,9.50
2008,06,15,06,04,9.50
2008,06,15,06,05,9.50
2008,06,15,06,06,9.50
2008,06,15,06,07,9.60
2008,06,15,06,08,9.60
2008,06,15,06,09,9.60
2008,06,15,06,10,9.70
2008,06,15,06,11,9.70
2008,06,15,06,12,9.70
2008,06,15,06,13,9.70
2008,06,15,06,14,9.70
2008,06,15,06,15,9.70
2008,06,15,06,16,9.80
2008,06,15,06,17,9.80
2008,06,15,06,18,9.80
2008,06,15,06,19,9.80
2008,06,15,06,20,9.90
2008,06,15,06,21,9.90
2008,06,15,06,22,9.90
2008,06,15,06,23,9.90
2008,06,15,06,24,10.00
2008,06,15,06,25,10.10
2008,06,15,06,26,10.10
2008,06,15,06,27,10.10
2008,06,15,06,28,10.10
2008,06,15,06,29,10.10
2008,06,15,06,30,10.20
2008,06,15,06,31,10.20
2008,06,15,06,32,10.20
2008,06,15,06,33,10.30
2008,06,15,06,34,10.30
2008,06,15,06,35,10.40
2008,06,15,06,36,10.40
2008,06,15,06,37,10.40
2008,06,15,06,38,10.40
2008,06,15,06,39,10.50
2008,06,15,06,40,10.60
2008,06,15,06,41,10.60
2008,06,15,06,42,10.60
2008,06,15,06,43,10.60
2008,06,15,06,44,10.70
2008,06,15,06,45,10.70
2008,06,15,06,46,10.80
2008,06,15,06,47,10.80
2008,06,15,06,48,10.90
2008,06,15,06,49,10.90
2008,06,15,06,50,11.00
2008,06,15,06,51,11.10
2008,06,15,06,52,11.10
2008,06,15,06,53,11.20
2008,06,15,06,54,11.30
2008,06,15,06,55,11.40
2008,06,15,06,56,11.40
2008,06,15,06,57,11.60
2008,06,15,06,58,11.60
2008,06,15,06,59,11.70
2008,06,15,07,00,11.70
2008,06,15,07,01,11.80
2008,06,15,07,02,11.80
2008,06,15,07,03,11.80
2008,06,15,07,04,11.80
2008,06,15,07,05,11.90
2008,06,15,07,06,11.90
2008,06,15,07,07,11.90
2008,06,15,07,08,12.00
2008,06,15,07,09,12.00
2008,06,15,07,10,12.10
2008,06,15,07,11,12.10
2008,06,15,07,12,12.10
2008,06,15,07,13,12.10
2008,06,15,07,14,12.10
2008,06,15,07,15,12.10
2008,06,15,07,16,12.10
2008,06,15,07,17,12.10
2008,06,15,07,18,12.20
2008,06,15,07,19,12.20
2008,06,15,07,20,12.30
2008,06,15,07,21,12.30
2008,06,15,07,22,12.30
2008,06,15,07,23,12.30
2008,06,15,07,24,12.30
2008,06,15,07,25,12.30
2008,06,15,07,26,12.40
2008,06,15,07,27,12.40
2008,06,15,07,28,12.40
2008,06,15,07,29,12.40
2008,06,15,07,30,12.40
2008,06,15,07,31,12.40
2008,06,15,07,32,12.30
2008,06,15,07,33,12.40
2008,06,15,07,34,12.40
2008,06,15,07,35,12.40
2008,06,15,07,36,12.50
2008,06,15,07,37,12.40
2008,06,15,07,38,12.50
2008,06,15,07,39,12.50
2008,06,15,07,40,12.50
2008,06,15,07,41,12.50
2008,06,15,07,42,12.50
2008,06,15,07,43,12.60
2008,06,15,07,44,12.70
2008,06,15,07,45,12.60
2008,06,15,07,46,12.60
2008,06,15,07,47,12.60
2008,06,15,07,48,12.60
2008,06,15,07,49,12.70
2008,06,15,07,50,12.70
2008,06,15,07,51,12.80
2008,06,15,07,52,12.80
2008,06,15,07,53,12.80
2008,06,15,07,54,12.90
2008,06,15,07,55,12.90
2008,06,15,07,56,13.00
2008,06,15,07,57,13.00
2008,06,15,07,58,12.80
2008,06,15,07,59,12.70
2008,06,15,08,00,12.60
2008,06,15,08,01,12.60
2008,06,15,08,02,12.60
2008,06,15,08,03,12.70
2008,06,15,08,04,12.70
2008,06,15,08,05,12.70
2008,06,15,08,06,12.60
2008,06,15,08,07,12.50
2008,06,15,08,08,12.50
2008,06,15,08,09,12.50
2008,06,15,08,10,12.50
2008,06,15,08,11,12.60
2008,06,15,08,12,12.60
2008,06,15,08,13,12.70
2008,06,15,08,14,12.80
2008,06,15,08,15,12.80
2008,06,15,08,16,12.90
2008,06,15,08,17,13.00
2008,06,15,08,18,13.10
2008,06,15,08,19,13.10
2008,06,15,08,20,13.10
2008,06,15,08,21,13.10
2008,06,15,08,22,13.20
2008,06,15,08,23,13.30
2008,06,15,08,24,13.30
2008,06,15,08,25,13.30
2008,06,15,08,26,13.30
2008,06,15,08,27,13.30
2008,06,15,08,28,13.20
2008,06,15,08,29,13.10
2008,06,15,08,30,13.10
2008,06,15,08,31,13.10
2008,06,15,08,32,13.10
2008,06,15,08,33,13.10
2008,06,15,08,34,13.10
2008,06,15,08,35,13.20
2008,06,15,08,36,13.20
2008,06,15,08,37,13.20
2008,06,15,08,38,13.20
2008,06,15,08,39,13.20
2008,06,15,08,40,13.10
2008,06,15,08,41,13.10
2008,06,15,08,42,13.10
2008,06,15,08,43,13.00
2008,06,15,08,44,13.00
2008,06,15,08,45,12.90
2008,06,15,08,46,12.80
2008,06,15,08,47,12.80
2008,06,15,08,48,12.80
2008,06,15,08,49,12.80
2008,06,15,08,50,12.80
2008,06,15,08,51,13.00
2008,06,15,08,52,13.00
2008,06,15,08,53,13.10
2008,06,15,08,54,13.10
2008,06,15,08,55,13.10
2008,06,15,08,56,13.10
2008,06,15,08,57,13.10
2008,06,15,08,58,13.10
2008,06,15,08,59,13.20
2008,06,15,09,00,13.30
2008,06,15,09,01,13.50
2008,06,15,09,02,13.60
2008,06,15,09,03,13.60
2008,06,15,09,04,13.50
2008,06,15,09,05,13.50
2008,06,15,09,06,13.40
2008,06,15,09,07,13.40
2008,06,15,09,08,13.30
2008,06,15,09,09,13.20
2008,06,15,09,10,13.10
2008,06,15,09,11,13.00
2008,06,15,09,12,13.00
2008,06,15,09,13,13.10
2008,06,15,09,14,13.10
2008,06,15,09,15,13.00
2008,06,15,09,16,13.00
2008,06,15,09,17,13.10
2008,06,15,09,18,13.10
2008,06,15,09,19,13.20
2008,06,15,09,20,13.30
2008,06,15,09,21,13.40
2008,06,15,09,22,13.40
2008,06,15,09,23,13.40
2008,06,15,09,24,13.40
2008,06,15,09,25,13.50
2008,06,15,09,26,13.60
2008,06,15,09,27,13.60
2008,06,15,09,28,13.50
2008,06,15,09,29,13.40
2008,06,15,09,30,13.40
2008,06,15,09,31,13.30
2008,06,15,09,32,13.30
2008,06,15,09,33,13.40
2008,06,15,09,34,13.50
2008,06,15,09,35,13.60
2008,06,15,09,36,13.70
2008,06,15,09,37,13.60
2008,06,15,09,38,13.60
2008,06,15,09,39,13.60
2008,06,15,09,40,13.50
2008,06,15,09,41,13.50
2008,06,15,09,42,13.50
2008,06,15,09,43,13.40
2008,06,15,09,44,13.30
2008,06,15,09,45,13.30
2008,06,15,09,46,13.30
2008,06,15,09,47,13.40
2008,06,15,09,48,13.30
2008,06,15,09,49,13.30
2008,06,15,09,50,13.40
2008,06,15,09,51,13.50
2008,06,15,09,52,13.60
2008,06,15,09,53,13.60
2008,06,15,09,54,13.70
2008,06,15,09,55,13.70
2008,06,15,09,56,13.70
2008,06,15,09,57,13.60
2008,06,15,09,58,13.40
2008,06,15,09,59,13.30
2008,06,15,10,00,13.30
2008,06,15,10,01,13.40
2008,06,15,10,02,13.40
2008,06,15,10,03,13.40
2008,06,15,10,04,13.30
2008,06,15,10,05,13.30
2008,06,15,10,06,13.30
2008,06,15,10,07,13.40
2008,06,15,10,08,13.30
2008,06,15,10,09,13.30
2008,06,15,10,10,13.30
2008,06,15,10,11,13.30
2008,06,15,10,12,13.50
2008,06,15,10,13,13.60
2008,06,15,10,14,13.70
2008,06,15,10,15,13.90
2008,06,15,10,16,14.00
2008,06,15,10,17,14.00
2008,06,15,10,18,14.00
2008,06,15,10,19,14.00
2008,06,15,10,20,14.00
2008,06,15,10,21,14.10
2008,06,15,10,22,14.10
2008,06,15,10,23,14.00
2008,06,15,10,24,14.00
2008,06,15,10,25,14.10
2008,06,15,10,26,14.10
2008,06,15,10,27,14.20
2008,06,15,10,28,14.20
2008,06,15,10,29,14.20
2008,06,15,10,30,14.20
2008,06,15,10,31,14.20
2008,06,15,10,32,14.20
2008,06,15,10,33,14.30
2008,06,15,10,34,14.30
2008,06,15,10,35,14.40
2008,06,15,10,36,14.30
2008,06,15,10,37,14.20
2008,06,15,10,38,14.10
2008,06,15,10,39,14.00
2008,06,15,10,40,14.00
2008,06,15,10,41,14.00
2008,06,15,10,42,14.00
2008,06,15,10,43,14.10
2008,06,15,10,44,14.00
2008,06,15,10,45,14.00
2008,06,15,10,46,13.90
2008,06,15,10,47,13.90
2008,06,15,10,48,13.80
2008,06,15,10,49,13.70
2008,06,15,10,50,13.80
2008,06,15,10,51,13.70
2008,06,15,10,52,13.70
2008,06,15,10,53,13.70
2008,06,15,10,54,13.70
2008,06,15,10,55,13.70
2008,06,15,10,56,13.70
2008,06,15,10,57,13.70
2008,06,15,10,58,13.80
2008,06,15,10,59,13.90
2008,06,15,11,00,14.00
2008,06,15,11,01,14.00
2008,06,15,11,02,14.10
2008,06,15,11,03,14.10
2008,06,15,11,04,14.10
2008,06,15,11,05,14.10
2008,06,15,11,06,14.10
2008,06,15,11,07,14.10
2008,06,15,11,08,14.00
2008,06,15,11,09,13.90
2008,06,15,11,10,13.80
2008,06,15,11,11,13.70
2008,06,15,11,12,13.70
2008,06,15,11,13,13.80
2008,06,15,11,14,13.70
2008,06,15,11,15,13.70
2008,06,15,11,16,13.80
2008,06,15,11,17,13.80
2008,06,15,11,18,13.90
2008,06,15,11,19,14.00
2008,06,15,11,20,13.90
2008,06,15,11,21,14.00
2008,06,15,11,22,14.10
2008,06,15,11,23,14.10
2008,06,15,11,24,14.00
2008,06,15,11,25,14.00
2008,06,15,11,26,13.90
2008,06,15,11,27,14.10
2008,06,15,11,28,14.20
2008,06,15,11,29,14.20
2008,06,15,11,30,14.20
2008,06,15,11,31,14.30
2008,06,15,11,32,14.50
2008,06,15,11,33,14.70
2008,06,15,11,34,14.80
2008,06,15,11,35,14.90
2008,06,15,11,36,15.00
2008,06,15,11,37,15.10
2008,06,15,11,38,15.20
2008,06,15,11,39,15.20
2008,06,15,11,40,15.20
2008,06,15,11,41,15.20
2008,06,15,11,42,15.10
2008,06,15,11,43,14.90
2008,06,15,11,44,14.90
2008,06,15,11,45,14.80
2008,06,15,11,46,14.80
2008,06,15,11,47,14.70
2008,06,15,11,48,14.70
2008,06,15,11,49,14.60
2008,06,15,11,50,14.40
2008,06,15,11,51,14.40
2008,06,15,11,52,14.50
2008,06,15,11,53,14.50
2008,06,15,11,54,14.40
2008,06,15,11,55,14.40
2008,06,15,11,56,14.50
2008,06,15,11,57,14.50
2008,06,15,11,58,14.30
2008,06,15,11,59,14.20
2008,06,15,12,00,14.20
2008,06,15,12,01,14.20
2008,06,15,12,02,14.10
2008,06,15,12,03,14.00
2008,06,15,12,04,13.90
2008,06,15,12,05,13.90
2008,06,15,12,06,13.80
2008,06,15,12,07,13.90
2008,06,15,12,08,14.00
2008,06,15,12,09,14.10
2008,06,15,12,10,14.20
2008,06,15,12,11,14.30
2008,06,15,12,12,14.50
2008,06,15,12,13,14.70
2008,06,15,12,14,14.80
2008,06,15,12,15,14.90
2008,06,15,12,16,15.00
2008,06,15,12,17,15.00
2008,06,15,12,18,14.90
2008,06,15,12,19,14.90
2008,06,15,12,20,14.80
2008,06,15,12,21,14.80
2008,06,15,12,22,14.70
2008,06,15,12,23,14.60
2008,06,15,12,24,14.60
2008,06,15,12,25,14.60
2008,06,15,12,26,14.60
2008,06,15,12,27,14.60
2008,06,15,12,28,14.60
2008,06,15,12,29,14.60
2008,06,15,12,30,14.50
2008,06,15,12,31,14.50
2008,06,15,12,32,14.50
2008,06,15,12,33,14.70
2008,06,15,12,34,14.90
2008,06,15,12,35,15.00
2008,06,15,12,36,15.10
2008,06,15,12,37,15.30
2008,06,15,12,38,15.20
2008,06,15,12,39,15.10
2008,06,15,12,40,15.00
2008,06,15,12,41,15.00
2008,06,15,12,42,15.10
2008,06,15,12,43,15.20
2008,06,15,12,44,15.30
2008,06,15,12,45,15.20
2008,06,15,12,46,15.20
2008,06,15,12,47,15.30
2008,06,15,12,48,15.50
2008,06,15,12,49,15.50
2008,06,15,12,50,15.50
2008,06,15,12,51,15.50
2008,06,15,12,52,15.50
2008,06,15,12,53,15.50
2008,06,15,12,54,15.40
2008,06,15,12,55,15.40
2008,06,15,12,56,15.50
2008,06,15,12,57,15.50
2008,06,15,12,58,15.50
2008,06,15,12,59,15.50
2008,06,15,13,00,15.40
2008,06,15,13,01,15.40
2008,06,15,13,02,15.20
2008,06,15,13,03,15.10
2008,06,15,13,04,15.10
2008,06,15,13,05,15.10
2008,06,15,13,06,15.20
2008,06,15,13,07,15.20
2008,06,15,13,08,15.20
2008,06,15,13,09,15.20
2008,06,15,13,10,15.20
2008,06,15,13,11,15.30
2008,06,15,13,12,15.30
2008,06,15,13,13,15.20
2008,06,15,13,14,15.20
2008,06,15,13,15,15.20
2008,06,15,13,16,15.20
2008,06,15,13,17,15.20
2008,06,15,13,18,15.20
2008,06,15,13,19,15.30
2008,06,15,13,20,15.30
2008,06,15,13,21,15.40
2008,06,15,13,22,15.40
2008,06,15,13,23,15.50
2008,06,15,13,24,15.50
2008,06,15,13,25,15.60
2008,06,15,13,26,15.70
2008,06,15,13,27,15.70
2008,06,15,13,28,15.90
2008,06,15,13,29,16.10
2008,06,15,13,30,16.30
2008,06,15,13,31,16.40
2008,06,15,13,32,16.40
2008,06,15,13,33,16.60
2008,06,15,13,34,16.70
2008,06,15,13,35,16.80
2008,06,15,13,36,17.00
2008,06,15,13,37,17.10
2008,06,15,13,38,17.40
2008,06,15,13,39,17.50
2008,06,15,13,40,17.60
2008,06,15,13,41,17.70
2008,06,15,13,42,17.70
2008,06,15,13,43,17.70
2008,06,15,13,44,17.80
2008,06,15,13,45,17.80
2008,06,15,13,46,17.80
2008,06,15,13,47,17.90
2008,06,15,13,48,17.90
2008,06,15,13,49,17.90
2008,06,15,13,50,17.90
2008,06,15,13,51,17.90
2008,06,15,13,52,17.80
2008,06,15,13,53,17.80
2008,06,15,13,54,17.90
2008,06,15,13,55,18.00
2008,06,15,13,56,18.10
2008,06,15,13,57,18.20
2008,06,15,13,58,18.20
2008,06,15,13,59,18.10
2008,06,15,14,00,18.10
2008,06,15,14,01,18.00
2008,06,15,14,02,17.90
2008,06,15,14,03,17.90
2008,06,15,14,04,17.80
2008,06,15,14,05,17.80
2008,06,15,14,06,17.80
2008,06,15,14,07,17.90
2008,06,15,14,08,17.90
2008,06,15,14,09,17.90
2008,06,15,14,10,17.80
2008,06,15,14,11,17.80
2008,06,15,14,12,17.80
2008,06,15,14,13,17.80
2008,06,15,14,14,17.90
2008,06,15,14,15,18.00
2008,06,15,14,16,18.10
2008,06,15,14,17,18.20
2008,06,15,14,18,18.20
2008,06,15,14,19,18.40
2008,06,15,14,20,18.50
2008,06,15,14,21,18.50
2008,06,15,14,22,18.40
2008,06,15,14,23,18.40
2008,06,15,14,24,18.30
2008,06,15,14,25,18.40
2008,06,15,14,26,18.50
2008,06,15,14,27,18.60
2008,06,15,14,28,18.60
2008,06,15,14,29,18.60
2008,06,15,14,30,18.60
2008,06,15,14,31,18.60
2008,06,15,14,32,18.60
2008,06,15,14,33,18.50
2008,06,15,14,34,18.50
2008,06,15,14,35,18.40
2008,06,15,14,36,18.30
2008,06,15,14,37,18.30
2008,06,15,14,38,18.30
2008,06,15,14,39,18.30
2008,06,15,14,40,18.20
2008,06,15,14,41,18.20
2008,06,15,14,42,18.10
2008,06,15,14,43,18.10
2008,06,15,14,44,18.10
2008,06,15,14,45,18.10
2008,06,15,14,46,18.10
2008,06,15,14,47,18.00
2008,06,15,14,48,17.90
2008,06,15,14,49,17.90
2008,06,15,14,50,17.80
2008,06,15,14,51,17.60
2008,06,15,14,52,17.50
2008,06,15,14,53,17.40
2008,06,15,14,54,17.40
2008,06,15,14,55,17.40
2008,06,15,14,56,17.40
2008,06,15,14,57,17.40
2008,06,15,14,58,17.40
2008,06,15,14,59,17.40
2008,06,15,15,00,17.30
2008,06,15,15,01,17.30
2008,06,15,15,02,17.40
2008,06,15,15,03,17.50
2008,06,15,15,04,17.50
2008,06,15,15,05,17.60
2008,06,15,15,06,17.70
2008,06,15,15,07,17.80
2008,06,15,15,08,17.90
2008,06,15,15,09,18.10
2008,06,15,15,10,18.20
2008,06,15,15,11,18.20
2008,06,15,15,12,18.20
2008,06,15,15,13,18.30
2008,06,15,15,14,18.30
2008,06,15,15,15,18.50
2008,06,15,15,16,18.50
2008,06,15,15,17,18.60
2008,06,15,15,18,18.60
2008,06,15,15,19,18.60
2008,06,15,15,20,18.60
2008,06,15,15,21,18.70
2008,06,15,15,22,18.80
2008,06,15,15,23,18.80
2008,06,15,15,24,18.80
2008,06,15,15,25,18.90
2008,06,15,15,26,18.90
2008,06,15,15,27,18.90
2008,06,15,15,28,18.90
2008,06,15,15,29,18.80
2008,06,15,15,30,18.90
2008,06,15,15,31,18.90
2008,06,15,15,32,18.90
2008,06,15,15,33,18.90
2008,06,15,15,34,19.00
2008,06,15,15,35,19.10
2008,06,15,15,36,19.00
2008,06,15,15,37,18.90
2008,06,15,15,38,18.90
2008,06,15,15,39,18.90
2008,06,15,15,40,18.90
2008,06,15,15,41,18.90
2008,06,15,15,42,18.90
2008,06,15,15,43,18.90
2008,06,15,15,44,18.90
2008,06,15,15,45,18.90
2008,06,15,15,46,19.00
2008,06,15,15,47,19.10
2008,06,15,15,48,19.10
2008,06,15,15,49,19.10
2008,06,15,15,50,19.10
2008,06,15,15,51,19.20
2008,06,15,15,52,19.20
2008,06,15,15,53,19.20
2008,06,15,15,54,19.30
2008,06,15,15,55,19.40
2008,06,15,15,56,19.50
2008,06,15,15,57,19.60
2008,06,15,15,58,19.60
2008,06,15,15,59,19.70
2008,06,15,16,00,19.60
2008,06,15,16,01,19.50
2008,06,15,16,02,19.50
2008,06,15,16,03,19.60
2008,06,15,16,04,19.40
2008,06,15,16,05,19.20
2008,06,15,16,06,19.20
2008,06,15,16,07,19.10
2008,06,15,16,08,19.10
2008,06,15,16,09,19.10
2008,06,15,16,10,19.10
2008,06,15,16,11,19.10
2008,06,15,16,12,19.10
2008,06,15,16,13,19.20
2008,06,15,16,14,19.10
2008,06,15,16,15,19.00
2008,06,15,16,16,18.90
2008,06,15,16,17,18.90
2008,06,15,16,18,18.90
2008,06,15,16,19,18.90
2008,06,15,16,20,18.80
2008,06,15,16,21,18.70
2008,06,15,16,22,18.70
2008,06,15,16,23,18.70
2008,06,15,16,24,18.70
2008,06,15,16,25,18.70
2008,06,15,16,26,18.60
2008,06,15,16,27,18.40
2008,06,15,16,28,18.20
2008,06,15,16,29,18.00
2008,06,15,16,30,17.90
2008,06,15,16,31,17.70
2008,06,15,16,32,17.60
2008,06,15,16,33,17.60
2008,06,15,16,34,17.60
2008,06,15,16,35,17.60
2008,06,15,16,36,17.50
2008,06,15,16,37,17.50
2008,06,15,16,38,17.50
2008,06,15,16,39,17.50
2008,06,15,16,40,17.60
2008,06,15,16,41,17.70
2008,06,15,16,42,17.80
2008,06,15,16,43,17.90
2008,06,15,16,44,18.00
2008,06,15,16,45,18.20
2008,06,15,16,46,18.20
2008,06,15,16,47,18.30
2008,06,15,16,48,18.30
2008,06,15,16,49,18.40
2008,06,15,16,50,18.40
2008,06,15,16,51,18.40
2008,06,15,16,52,18.40
2008,06,15,16,53,18.40
2008,06,15,16,54,18.40
2008,06,15,16,55,18.50
2008,06,15,16,56,18.50
2008,06,15,16,57,18.40
2008,06,15,16,58,18.50
2008,06,15,16,59,18.50
2008,06,15,17,00,18.50
2008,06,15,17,01,18.60
2008,06,15,17,02,18.60
2008,06,15,17,03,18.70
2008,06,15,17,04,18.70
2008,06,15,17,05,18.70
2008,06,15,17,06,18.80
2008,06,15,17,07,18.90
2008,06,15,17,08,18.90
2008,06,15,17,09,18.80
2008,06,15,17,10,18.70
2008,06,15,17,11,18.70
2008,06,15,17,12,18.60
2008,06,15,17,13,18.60
2008,06,15,17,14,18.60
2008,06,15,17,15,18.70
2008,06,15,17,16,18.70
2008,06,15,17,17,18.60
2008,06,15,17,18,18.60
2008,06,15,17,19,18.50
2008,06,15,17,20,18.40
2008,06,15,17,21,18.30
2008,06,15,17,22,18.30
2008,06,15,17,23,18.30
2008,06,15,17,24,18.40
2008,06,15,17,25,18.40
2008,06,15,17,26,18.40
2008,06,15,17,27,18.50
2008,06,15,17,28,18.50
2008,06,15,17,29,18.60
2008,06,15,17,30,18.60
2008,06,15,17,31,18.60
2008,06,15,17,32,18.60
2008,06,15,17,33,18.50
2008,06,15,17,34,18.50
2008,06,15,17,35,18.40
2008,06,15,17,36,18.30